Location: Boursonne
(49.2024°N, 3.0468°E)
Time: 02:16:50
(UTC+00:00)

Cosmos 2341 Rocket - Pass Details

Date: 03 March 2021
Orbit: 968 x 1005 km, 82.9° (Epoch: 12 April)

Event Time Altitude Azimuth Distance (km) Brightness Sun altitude
Rises 18:29:54 0° 163° (SSE) 3,698 6.8 -9.9°
Reaches altitude 10° 18:32:33 10° 156° (SSE) 2,748 6.1 -10.3°
Maximum altitude 18:38:23 41° 89° (E) 1,395 4.4 -11.3°
Drops below altitude 10° 18:44:11 10° 21° (NNE) 2,742 6.2 -12.2°
Sets 18:46:49 0° 15° (NNE) 3,689 6.9 -12.6°
